Location: Cincinnati Observatory Center
(39.1389°N, 84.4225°W)
Time: 17:01:03
(UTC-04:00)

Amateur Radio Satellites - All Passes

Search period start: 24 April 2017 16:31
Search period end: 25 April 2017 16:31
Location: Cincinnati Observatory Center, 39.1389°N, 84.4225°W

Satellite Date Start Highest point End Downlink Frequencies (MHz)
Time Altitude Azimuth
YUBILEINY 24 Apr 16:47:51 16:56:38 75° 81° (E) 17:05:25 435.215
Tancredo 1 24 Apr 16:54:54 16:58:00 74° 220° (SW) 17:01:05 437.200
ISS 24 Apr 16:57:22 17:00:38 87° 43° (NE) 17:03:53 437.550
SO-50 24 Apr 17:09:53 17:14:24 79° 241° (WSW) 17:18:54 436.795
DOVE 4 24 Apr 17:16:09 17:18:21 13° 62° (ENE) 17:20:32 437.250
BEESAT 24 Apr 17:23:04 17:27:23 35° 290° (WNW) 17:31:42 436.000
RS-15 24 Apr 17:29:25 17:41:42 68° 54° (NE) 17:53:19 29.354- 29.394
MOZHAYETS 4 24 Apr 17:38:28 17:42:54 47° 287° (WNW) 17:47:18
XW-2D 24 Apr 17:57:39 17:59:32 13° 67° (ENE) 18:01:24 145.860 - 145.880
ITUPSAT 1 24 Apr 18:03:11 18:06:00 16° 297° (WNW) 18:08:50 437.325
AO-7 24 Apr 18:03:46 18:09:27 20° 267° (W) 18:15:10 .
XW-2B 24 Apr 18:04:05 18:06:21 16° 67° (ENE) 18:08:37 145.730 - 145.750
KKS-1 24 Apr 18:08:38 18:13:03 62° 101° (ESE) 18:17:25 437.445
LilacSat-2 24 Apr 18:11:33 18:14:21 20° 69° (ENE) 18:17:10 437.200
XW-2C 24 Apr 18:15:11 18:18:03 21° 70° (ENE) 18:20:56 145.795 - 145.815
KAITUO 1B 24 Apr 18:19:13 18:21:49 19° 69° (ENE) 18:24:26 145.475/437.950
CUBESAT XI-V 24 Apr 18:22:31 18:27:16 86° 102° (ESE) 18:31:58 437.345
XW-2F 24 Apr 18:41:47 18:45:18 43° 74° (ENE) 18:48:52 145.980 - 146.000
YUBILEINY 24 Apr 18:46:20 18:52:26 22° 280° (W) 18:58:35 435.215
STARS 24 Apr 18:47:20 18:51:42 71° 103° (ESE) 18:56:01 437.465
DOVE 4 24 Apr 18:49:58 18:55:16 85° 258° (WSW) 19:00:34 437.250
CUTE-I 24 Apr 18:57:22 19:02:41 69° 73° (ENE) 19:08:00 437.470
NUDT-PHONESAT 24 Apr 19:00:37 19:04:14 63° 76° (ENE) 19:07:52 437.300
XW-2D 24 Apr 19:29:53 19:33:22 37° 262° (W) 19:36:53 145.860 - 145.880
XW-2B 24 Apr 19:36:54 19:40:16 32° 263° (W) 19:43:40 145.730 - 145.750
CUTE 1.7 + AOD 2 24 Apr 19:38:03 19:41:35 27° 70° (ENE) 19:45:09 437.475
STRAND 1 24 Apr 19:40:20 19:40:42 10° 89° (E) 19:41:02 437.568
RS-15 24 Apr 19:42:58 19:53:14 35° 256° (WSW) 20:03:09 29.354- 29.394
HO-68 24 Apr 19:43:25 19:50:16 52° 68° (ENE) 19:57:10 435.675
LilacSat-2 24 Apr 19:45:24 19:48:29 24° 264° (W) 19:51:36 437.200
KKS-1 24 Apr 19:47:12 19:49:03 12° 297° (WNW) 19:50:54 437.445
XW-2A 24 Apr 19:48:38 19:51:40 32° 73° (ENE) 19:54:43 145.665 - 145.685
XW-2C 24 Apr 19:49:08 19:52:08 23° 265° (W) 19:55:08 145.795 - 145.815
KAITUO 1B 24 Apr 19:52:34 19:55:39 25° 264° (W) 19:58:46 145.475/437.950
SEEDS 24 Apr 20:02:25 20:06:09 32° 71° (ENE) 20:09:54 437.485
CUBESAT XI-V 24 Apr 20:03:29 20:03:54 10° 299° (WNW) 20:04:18 437.345
UWE-3 24 Apr 20:11:31 20:14:25 18° 67° (ENE) 20:17:18 435.000/436.395/437.385
CUBEBUG 2 24 Apr 20:18:25 20:22:26 36° 72° (ENE) 20:26:22 437.445
XW-2F 24 Apr 20:18:41 20:19:40 11° 269° (W) 20:20:39 145.980 - 146.000
STARS 24 Apr 20:26:27 20:27:25 11° 298° (WNW) 20:28:23 437.465
JUGNU 24 Apr 20:38:41 20:40:14 11° 178° (S) 20:41:49 437.505
M-CUBED/EXP-1 PRIME 24 Apr 20:39:45 20:43:30 31° 101° (E) 20:46:59 437.505
CUTE-I 24 Apr 20:40:33 20:43:11 14° 269° (W) 20:45:50 437.470
NO-84 24 Apr 21:07:47 21:11:28 76° 135° (SE) 21:14:50 435.350 FM
ZACube-1 24 Apr 21:10:59 21:15:01 46° 74° (ENE) 21:19:01 437.345
CUTE 1.7 + AOD 2 24 Apr 21:14:00 21:17:22 23° 265° (W) 21:20:46 437.475
STRAND 1 24 Apr 21:15:20 21:20:27 83° 283° (WNW) 21:25:33 437.568
AAUSAT CUBESAT 2 24 Apr 21:16:55 21:21:02 70° 260° (W) 21:25:11 437.432
AO-73 24 Apr 21:19:12 21:23:17 52° 74° (ENE) 21:27:19 145.935
XW-2A 24 Apr 21:23:23 21:24:32 11° 268° (W) 21:25:41 145.665 - 145.685
HO-68 24 Apr 21:32:15 21:38:13 28° 265° (W) 21:44:15 435.675
Oscar 11 24 Apr 21:37:22 21:41:38 72° 75° (ENE) 21:45:56 .
SEEDS 24 Apr 21:38:54 21:41:53 19° 267° (W) 21:44:53 437.485
O/OREOS (USA 219) 24 Apr 21:44:29 21:49:07 87° 73° (ENE) 21:53:38 437.305
UWE-3 24 Apr 21:46:38 21:50:37 36° 262° (W) 21:54:32 435.000/436.395/437.385
CUBEBUG 2 24 Apr 21:56:03 21:59:08 18° 266° (W) 22:02:10 437.445
OBJECT BX 24 Apr 22:03:03 22:06:05 25° 71° (ENE) 22:09:07 145.990 - 145.960
M-CUBED/EXP-1 PRIME 24 Apr 22:14:31 22:17:43 21° 299° (WNW) 22:20:43 437.505
DELFI C3 24 Apr 22:21:36 22:25:31 63° 75° (ENE) 22:29:29 145.870
TIGRISAT 24 Apr 22:44:34 22:47:05 15° 93° (E) 22:49:36 435.000
NO-84 24 Apr 22:47:15 22:49:17 15° 330° (NNW) 22:51:14 435.350 FM
ZACube-1 24 Apr 22:49:30 22:51:31 13° 268° (W) 22:53:32 437.345
AO-85 24 Apr 22:49:47 22:53:42 54° 57° (ENE) 22:57:46 145.980
AO-73 24 Apr 22:58:19 22:59:47 12° 269° (W) 23:01:16 145.935
UNISAT 6 24 Apr 23:04:08 23:07:50 28° 96° (E) 23:11:32 437.425
BEESAT 3 24 Apr 23:05:21 23:07:52 16° 45° (NE) 23:10:24 437.485
PRISM 24 Apr 23:12:07 23:16:13 57° 100° (E) 23:20:17 437.425
LO-87 24 Apr 23:14:18 23:17:19 25° 71° (ENE) 23:20:21 145.935 - 145.965
OBJECT BX 24 Apr 23:37:15 23:39:45 18° 266° (W) 23:42:16 145.990 - 145.960
SRMSAT 24 Apr 23:45:08 23:46:48 11° 181° (S) 23:48:27 437.500
FO-29 25 Apr 00:05:25 00:10:37 84° 103° (ESE) 00:16:08 435.910
ESTCUBE 1 25 Apr 00:16:13 00:20:43 80° 74° (ENE) 00:25:14 437.505/2401.250
TIGRISAT 25 Apr 00:19:55 00:23:57 42° 288° (WNW) 00:28:00 435.000
SPROUT 25 Apr 00:22:56 00:26:20 23° 68° (ENE) 00:29:43 437.525
AO-85 25 Apr 00:32:02 00:33:40 12° 250° (WSW) 00:35:18 145.980
BEESAT 2 25 Apr 00:35:41 00:39:38 48° 55° (NE) 00:43:33 435.950
VELOX 1 25 Apr 00:39:11 00:43:19 39° 71° (ENE) 00:47:29 145.980
EO-79 25 Apr 00:40:15 00:43:33 22° 95° (E) 00:46:50 145.935-145.965
UNISAT 6 25 Apr 00:41:00 00:44:24 23° 291° (WNW) 00:47:50 437.425
BEESAT 3 25 Apr 00:41:51 00:45:46 51° 243° (WSW) 00:49:37 437.485
DUCHIFAT 1 25 Apr 00:45:00 00:48:08 20° 95° (E) 00:51:15 145.980
LO-87 25 Apr 00:48:10 00:50:44 18° 266° (W) 00:53:18 145.935 - 145.965
PRISM 25 Apr 00:49:27 00:50:58 12° 297° (WNW) 00:52:30 437.425
AIST 2D 25 Apr 01:08:04 01:11:35 73° 284° (WNW) 01:15:05 435.315
UKube-1 25 Apr 01:10:17 01:13:40 23° 68° (ENE) 01:17:04 .
POLYITAN 1 25 Apr 01:18:10 01:22:20 63° 101° (E) 01:26:29 437.675
QB50P2 25 Apr 01:24:38 01:28:51 83° 101° (ESE) 01:33:03 145.880/145.840
50 SAT 25 Apr 01:34:53 01:38:21 77° 259° (W) 01:41:52 437.505
DX 1 25 Apr 01:37:45 01:42:05 67° 75° (ENE) 01:46:27 434.975-435.025
Oscar 19 25 Apr 01:44:44 01:45:54 11° 89° (E) 01:47:04 437.125/150
NANOSAT C BR1 25 Apr 01:48:48 01:52:56 61° 285° (WNW) 01:57:03 145.865
FO-29 25 Apr 01:53:33 01:55:04 11° 300° (WNW) 01:56:35 435.910
BUGSAT 1 25 Apr 01:54:54 01:58:41 39° 99° (E) 02:02:26 437.445
SPROUT 25 Apr 01:58:23 02:02:05 28° 264° (W) 02:05:48 437.525
BEESAT 2 25 Apr 02:14:52 02:16:58 14° 251° (WSW) 02:19:05 435.950
EO-79 25 Apr 02:15:42 02:19:17 28° 290° (WNW) 02:22:51 145.935-145.965
VELOX 1 25 Apr 02:16:51 02:19:53 18° 266° (W) 02:22:57 145.980
DUCHIFAT 1 25 Apr 02:20:10 02:23:48 30° 290° (WNW) 02:27:26 145.980
UKube-1 25 Apr 02:45:43 02:49:32 30° 263° (W) 02:53:21 .
BEESAT 25 Apr 02:51:15 02:55:00 24° 67° (ENE) 02:58:46 436.000
POLYITAN 1 25 Apr 02:56:26 02:57:34 11° 297° (WNW) 02:58:42 437.675
MOZHAYETS 4 25 Apr 03:04:17 03:06:38 14° 64° (ENE) 03:08:59
Gurwin Techsat 1B 25 Apr 03:05:55 03:10:57 41° 99° (E) 03:15:56 435.225
Oscar 19 25 Apr 03:20:33 03:25:48 82° 284° (WNW) 03:30:59 437.125/150
ITUPSAT 1 25 Apr 03:29:24 03:34:03 57° 73° (ENE) 03:38:43 437.325
BUGSAT 1 25 Apr 03:31:22 03:33:42 15° 294° (WNW) 03:36:01 437.445
NO-84 25 Apr 03:43:18 03:45:43 23° 35° (NE) 03:48:06 435.350 FM
PCSat 25 Apr 03:46:22 03:51:46 87° 117° (ESE) 03:57:15 145.827
YUBILEINY 25 Apr 03:55:28 04:00:08 16° 77° (ENE) 04:04:48 435.215
AO-7 25 Apr 04:11:18 04:18:09 28° 96° (E) 04:24:58 .
BEESAT 25 Apr 04:28:16 04:32:35 34° 262° (W) 04:36:54 436.000
MOZHAYETS 4 25 Apr 04:38:49 04:43:16 56° 259° (W) 04:47:46
ITAMSAT 1 25 Apr 04:42:04 04:47:05 50° 100° (E) 04:52:06 435.822/435.867
Gurwin Techsat 1B 25 Apr 04:46:26 04:50:37 24° 295° (WNW) 04:54:47 435.225
Oscar 19 25 Apr 05:03:41 05:04:14 10° 302° (WNW) 05:04:48 437.125/150
KKS-1 25 Apr 05:05:16 05:09:34 49° 72° (ENE) 05:13:54 437.445
ITUPSAT 1 25 Apr 05:09:46 05:12:13 14° 268° (W) 05:14:40 437.325
NO-84 25 Apr 05:20:54 05:23:07 21° 232° (SW) 05:25:20 435.350 FM
CUBESAT XI-V 25 Apr 05:24:18 05:28:54 72° 75° (ENE) 05:33:35 437.345
PCSat 25 Apr 05:32:40 05:35:54 16° 316° (NW) 05:39:08 145.827
STARS 25 Apr 05:42:26 05:46:44 54° 73° (ENE) 05:51:03 437.465
YUBILEINY 25 Apr 05:46:52 05:55:34 88° 95° (E) 06:04:19 435.215
AO-7 25 Apr 06:03:11 06:11:20 63° 293° (WNW) 06:19:29 .
ITAMSAT 1 25 Apr 06:22:31 06:26:09 20° 296° (WNW) 06:29:48 435.822/435.867
KKS-1 25 Apr 06:43:56 06:46:23 14° 268° (W) 06:48:49 437.445
DOVE 4 25 Apr 06:51:11 06:55:07 27° 94° (E) 06:58:52 437.250
STRAND 1 25 Apr 06:53:40 06:56:30 15° 62° (ENE) 06:59:20 437.568
XW-2D 25 Apr 07:03:38 07:06:38 22° 95° (E) 07:09:38 145.860 - 145.880
CUBESAT XI-V 25 Apr 07:06:15 07:06:46 10° 271° (W) 07:07:16 437.345
XW-2B 25 Apr 07:10:21 07:13:33 25° 96° (E) 07:16:45 145.730 - 145.750
CUTE-I 25 Apr 07:15:58 07:20:35 30° 96° (E) 07:25:10 437.470
LilacSat-2 25 Apr 07:18:54 07:22:26 34° 98° (E) 07:25:58 437.200
STARS 25 Apr 07:21:23 07:23:23 13° 268° (W) 07:25:22 437.465
XW-2C 25 Apr 07:21:55 07:25:26 35° 98° (E) 07:28:58 145.795 - 145.815
SO-50 25 Apr 07:22:51 07:27:13 42° 116° (ESE) 07:31:33 436.795
M-CUBED/EXP-1 PRIME 25 Apr 07:23:20 07:27:33 37° 66° (ENE) 07:31:51 437.505
KAITUO 1B 25 Apr 07:24:16 07:27:37 29° 97° (E) 07:30:57 145.475/437.950
YUBILEINY 25 Apr 07:47:56 07:53:34 18° 296° (WNW) 07:59:13 435.215
XW-2F 25 Apr 07:48:36 07:52:25 79° 102° (ESE) 07:56:13 145.980 - 146.000
RS-15 25 Apr 07:50:24 08:01:35 49° 109° (ESE) 08:13:06 29.354- 29.394
AO-7 25 Apr 07:58:51 08:02:27 14° 313° (NW) 08:06:04 .
NUDT-PHONESAT 25 Apr 08:05:43 08:09:26 76° 283° (WNW) 08:13:09 437.300
DOVE 4 25 Apr 08:28:51 08:32:43 26° 292° (WNW) 08:36:22 437.250
STRAND 1 25 Apr 08:30:02 08:35:07 66° 259° (WSW) 08:40:12 437.568
XW-2D 25 Apr 08:37:41 08:40:44 23° 290° (WNW) 08:43:47 145.860 - 145.880
XW-2A 25 Apr 08:43:49 08:47:01 40° 99° (E) 08:50:11 145.665 - 145.685
XW-2B 25 Apr 08:44:45 08:47:35 20° 291° (WNW) 08:50:26 145.730 - 145.750
LilacSat-2 25 Apr 08:54:07 08:56:25 15° 293° (WNW) 08:58:43 437.200
CUTE-I 25 Apr 08:55:53 09:00:35 33° 292° (WNW) 09:05:16 437.470
XW-2C 25 Apr 08:57:09 08:59:19 15° 293° (WNW) 09:01:30 145.795 - 145.815
M-CUBED/EXP-1 PRIME 25 Apr 08:58:25 09:02:00 23° 261° (W) 09:05:40 437.505
CUTE 1.7 + AOD 2 25 Apr 08:58:44 09:03:00 63° 101° (E) 09:07:15 437.475
KAITUO 1B 25 Apr 08:58:54 09:01:23 17° 292° (WNW) 09:03:53 145.475/437.950
HO-68 25 Apr 08:59:28 09:06:36 61° 102° (ESE) 09:13:42 435.675
AAUSAT CUBESAT 2 25 Apr 09:00:50 09:03:52 19° 94° (E) 09:06:53 437.432
SO-50 25 Apr 09:04:10 09:07:50 23° 313° (NW) 09:11:28 436.795
AO-73 25 Apr 09:10:41 09:11:25 10° 91° (E) 09:12:09 145.935
SEEDS 25 Apr 09:22:07 09:26:23 76° 101° (E) 09:30:39 437.485
Oscar 11 25 Apr 09:27:02 09:29:25 14° 92° (E) 09:31:48 .
Tancredo 1 25 Apr 09:28:01 09:31:02 51° 138° (SE) 09:34:04 437.200
ISS 25 Apr 09:36:19 09:39:27 48° 138° (SE) 09:42:36 437.550
UWE-3 25 Apr 09:36:40 09:40:40 43° 99° (E) 09:44:43 435.000/436.395/437.385
TIGRISAT 25 Apr 09:43:08 09:45:04 13° 65° (ENE) 09:47:01 435.000
CUBEBUG 2 25 Apr 09:46:05 09:50:15 83° 284° (WNW) 09:54:27 437.445
PRISM 25 Apr 10:00:08 10:03:53 34° 71° (ENE) 10:07:41 437.425
UNISAT 6 25 Apr 10:02:11 10:05:35 22° 68° (ENE) 10:08:58 437.425
RS-15 25 Apr 10:02:12 10:13:58 54° 311° (NW) 10:26:04 29.354- 29.394
FO-29 25 Apr 10:16:36 10:22:11 33° 69° (ENE) 10:27:14 435.910
O/OREOS (USA 219) 25 Apr 10:19:39 10:21:08 11° 97° (E) 10:22:37 437.305
AAUSAT CUBESAT 2 25 Apr 10:35:37 10:39:22 32° 289° (WNW) 10:43:05 437.432
ZACube-1 25 Apr 10:35:55 10:40:05 67° 285° (WNW) 10:44:20 437.345
CUTE 1.7 + AOD 2 25 Apr 10:36:52 10:38:16 11° 296° (WNW) 10:39:41 437.475
AO-73 25 Apr 10:43:50 10:47:59 60° 285° (WNW) 10:52:11 145.935
HO-68 25 Apr 10:48:06 10:53:48 26° 300° (WNW) 10:59:30 435.675
Oscar 11 25 Apr 11:01:37 11:05:46 46° 287° (WNW) 11:09:56 .
Tancredo 1 25 Apr 11:04:44 11:07:08 20° 335° (NNW) 11:09:31 437.200
OBJECT BX 25 Apr 11:05:51 11:09:18 38° 98° (E) 11:12:44 145.990 - 145.960
ISS 25 Apr 11:13:27 11:16:05 22° 334° (NNW) 11:18:43 437.550
UWE-3 25 Apr 11:14:22 11:16:46 15° 294° (WNW) 11:19:11 435.000/436.395/437.385
TIGRISAT 25 Apr 11:16:57 11:21:18 57° 260° (W) 11:25:34 435.000
EO-79 25 Apr 11:32:21 11:34:50 15° 66° (ENE) 11:37:20 145.935-145.965
DELFI C3 25 Apr 11:34:16 11:38:15 65° 285° (WNW) 11:42:12 145.870
PRISM 25 Apr 11:36:25 11:39:14 18° 266° (W) 11:42:06 437.425
DUCHIFAT 1 25 Apr 11:36:40 11:38:51 14° 65° (ENE) 11:41:03 145.980
UNISAT 6 25 Apr 11:38:13 11:42:08 30° 263° (W) 11:45:59 437.425
AIST 2D 25 Apr 11:41:26 11:44:30 30° 72° (ENE) 11:47:33 435.315
O/OREOS (USA 219) 25 Apr 11:55:23 11:59:55 63° 294° (WNW) 12:04:30 437.305
FO-29 25 Apr 12:01:14 12:07:10 36° 262° (W) 12:12:31 435.910
POLYITAN 1 25 Apr 12:09:25 12:13:21 39° 72° (ENE) 12:17:18 437.675
ESTCUBE 1 25 Apr 12:10:42 12:13:52 18° 93° (E) 12:17:01 437.505/2401.250
LO-87 25 Apr 12:15:11 12:18:29 34° 98° (E) 12:21:44 145.935 - 145.965
QB50P2 25 Apr 12:15:45 12:19:51 51° 74° (ENE) 12:23:57 145.880/145.840
RS-15 25 Apr 12:21:13 12:30:18 23° 342° (NNW) 12:39:25 29.354- 29.394
PCSat 25 Apr 12:35:23 12:40:44 54° 58° (ENE) 12:46:01 145.827
NANOSAT C BR1 25 Apr 12:39:10 12:43:23 81° 78° (ENE) 12:47:36 145.865
OBJECT BX 25 Apr 12:40:57 12:42:37 13° 294° (WNW) 12:44:18 145.990 - 145.960
BUGSAT 1 25 Apr 12:43:36 12:46:59 25° 69° (ENE) 12:50:21 437.445
Oscar 19 25 Apr 12:59:34 13:02:36 16° 62° (ENE) 13:05:39 437.125/150
AO-85 25 Apr 13:03:50 13:07:15 23° 113° (ESE) 13:10:31 145.980
EO-79 25 Apr 13:06:12 13:10:14 43° 261° (W) 13:14:16 145.935-145.965
DUCHIFAT 1 25 Apr 13:10:03 13:14:06 48° 260° (W) 13:18:10 145.980
AIST 2D 25 Apr 13:16:00 13:17:46 13° 267° (W) 13:19:34 435.315
DX 1 25 Apr 13:28:59 13:30:47 12° 92° (E) 13:32:34 434.975-435.025
SPROUT 25 Apr 13:44:24 13:48:32 49° 100° (E) 13:52:38 437.525
ESTCUBE 1 25 Apr 13:46:34 13:50:48 39° 289° (WNW) 13:55:01 437.505/2401.250
POLYITAN 1 25 Apr 13:46:42 13:49:17 16° 267° (W) 13:51:52 437.675
LO-87 25 Apr 13:49:52 13:51:35 13° 293° (WNW) 13:53:19 145.935 - 145.965
QB50P2 25 Apr 13:54:10 13:55:55 12° 269° (W) 13:57:39 145.880/145.840
VELOX 1 25 Apr 14:06:08 14:10:36 88° 282° (WNW) 14:15:00 145.980
BUGSAT 1 25 Apr 14:18:48 14:22:14 25° 264° (W) 14:25:39 437.445
PCSat 25 Apr 14:19:51 14:23:40 20° 255° (WSW) 14:27:29 145.827
Tancredo 1 25 Apr 14:19:55 14:21:06 12° 15° (NNE) 14:22:17 437.200
Gurwin Techsat 1B 25 Apr 14:25:45 14:30:58 60° 73° (ENE) 14:36:12 435.225
BEESAT 2 25 Apr 14:29:16 14:29:47 10° 107° (ESE) 14:30:17 435.950
ISS 25 Apr 14:29:44 14:31:11 12° 15° (NNE) 14:32:39 437.550
BEESAT 3 25 Apr 14:30:30 14:33:59 31° 114° (ESE) 14:37:32 437.485
50 SAT 25 Apr 14:32:15 14:35:42 60° 285° (WNW) 14:39:07 437.505
UKube-1 25 Apr 14:33:09 14:37:19 45° 100° (E) 14:41:27 .
Oscar 19 25 Apr 14:36:15 14:41:21 63° 259° (WSW) 14:46:30 437.125/150
RS-15 25 Apr 14:40:00 14:49:09 23° 19° (NNE) 14:58:06 29.354- 29.394
AO-85 25 Apr 14:43:39 14:47:29 32° 308° (NW) 14:51:09 145.980
DX 1 25 Apr 15:03:01 15:07:17 54° 287° (WNW) 15:11:30 434.975-435.025
AO-7 25 Apr 15:09:09 15:16:28 37° 60° (ENE) 15:23:46 .
SPROUT 25 Apr 15:21:50 15:24:00 14° 295° (WNW) 15:26:09 437.525
ITUPSAT 1 25 Apr 15:32:13 15:35:04 16° 92° (E) 15:37:56 437.325
Tancredo 1 25 Apr 15:54:39 15:57:38 44° 33° (NNE) 16:00:38 437.200
SO-50 25 Apr 15:55:13 15:59:09 29° 50° (NE) 16:03:04 436.795
YUBILEINY 25 Apr 15:58:38 16:06:50 42° 74° (ENE) 16:15:00 435.215
ITAMSAT 1 25 Apr 15:58:47 16:03:56 70° 74° (ENE) 16:09:07 435.822/435.867
BEESAT 2 25 Apr 16:03:03 16:06:58 62° 303° (WNW) 16:10:57 435.950
ISS 25 Apr 16:05:11 16:08:19 44° 33° (NNE) 16:11:27 437.550
Gurwin Techsat 1B 25 Apr 16:08:06 16:11:17 16° 268° (W) 16:14:29 435.225
BEESAT 3 25 Apr 16:08:27 16:11:36 22° 311° (NW) 16:14:48 437.485
UKube-1 25 Apr 16:10:23 16:12:56 16° 295° (WNW) 16:15:29 .
